Powrót do katalogu

GEESAT 5-08

AktywnyŁącznośćLEO
NORAD 65557·PAYLOAD·🇨🇳 China

Wystrzelony Sep 8, 2025 z Yellow Sea Launch Area

Loading…

Następne Przeloty (najbliższe 24 godziny)

TLE

ŚwieżeSource: Space-Track

Epoka: Sep 13, 2026, 15:10 UTC

1 65557U 25201H   26256.63243022  .00001175  00000-0  16521-3 0  9993
2 65557  49.9785 347.7925 0007717 248.0963 111.9156 14.84373874 54959

Śledź GEESAT 5-08 w czasie rzeczywistym z AllMySat

Download on the App Store